| time (UTC) | temp F | wind direction | speed knots | gust knots | rain 1hr in | rain 24hr in | rain mn in | humidity % | barometer mb |
| 20260507095006 | 46 | 45 | 0.9 | 5.2 | 0.00 | 1.04 | 1.03 | 17 | 1022.8 |
| 20260507094007 | 47 | 225 | 0.9 | 4.3 | 0.00 | 1.04 | 1.03 | 17 | 1022.8 |
| 20260507093006 | 47 | 45 | 0.9 | 4.3 | 0.00 | 1.04 | 1.03 | 17 | 1022.7 |
| 20260507092006 | 47 | 45 | 0.9 | 7.0 | 0.00 | 1.04 | 1.03 | 17 | 1022.7 |
| 20260507085005 | 46 | 180 | 0.9 | 4.3 | 0.00 | 1.04 | 1.03 | 17 | 1022.8 |
| 20260507084005 | 45 | 135 | 1.7 | 7.0 | 0.00 | 1.04 | 1.03 | 17 | 1022.7 |
| 20260507083007 | 45 | 90 | 1.7 | 7.0 | 0.00 | 1.04 | 1.03 | 17 | 1022.5 |
| 20260507081006 | 43 | 90 | 5.2 | 8.7 | 0.00 | 1.04 | 1.03 | 17 | 1022.4 |
| 20260507075006 | 44 | 90 | 3.5 | 7.8 | 0.00 | 1.04 | 1.03 | 17 | 1022.3 |
| 20260507074006 | 44 | 45 | 5.2 | 7.8 | 0.00 | 1.04 | 1.03 | 17 | 1022.0 |
| 20260507072006 | 45 | 90 | 1.7 | 8.7 | 0.65 | 1.04 | 1.03 | 17 | 1021.9 |
| 20260507071005 | 46 | 45 | 2.6 | 7.0 | 0.65 | 1.04 | 1.03 | 17 | 1021.9 |
| 20260507065006 | 47 | 180 | 2.6 | 7.8 | 0.65 | 1.04 | 1.03 | 17 | 1021.7 |
| 20260507064006 | 47 | 0 | 0.9 | 5.2 | 0.65 | 1.04 | 1.03 | 17 | 1021.6 |
| 20260507063006 | 43 | 135 | 2.6 | 5.2 | 0.65 | 1.04 | 1.03 | 17 | 989.9 |
| 20260507062006 | 47 | 270 | 2.6 | 6.1 | 0.00 | 1.04 | 1.03 | 17 | 1021.5 |
| 20260507061006 | 47 | 45 | 1.7 | 5.2 | 0.00 | 1.04 | 1.03 | 17 | 1021.4 |
| 20260507055006 | 45 | 270 | 2.6 | 5.2 | 0.00 | 1.04 | 1.03 | 17 | 1021.4 |
| 20260507054006 | 45 | 270 | 1.7 | 7.0 | 0.00 | 1.04 | 1.03 | 17 | 1021.1 |
| 20260507053006 | 45 | 270 | 2.6 | 5.2 | 0.00 | 1.04 | 1.03 | 17 | 1021.1 |
| 20260507051006 | 45 | 270 | 1.7 | 5.2 | 0.00 | 1.04 | 1.03 | 17 | 1021.0 |
| 20260507045006 | 44 | 270 | 1.7 | 4.3 | 0.00 | 1.04 | 1.03 | 17 | 1021.2 |
| 20260507043006 | 43 | 270 | 0.9 | 4.3 | 0.00 | 1.04 | 1.03 | 17 | 1021.1 |
| 20260507042005 | 42 | 0 | 0.9 | 5.2 | 0.00 | 1.04 | 1.03 | 17 | 1021.1 |
| 20260507041005 | 41 | 270 | 1.7 | 5.2 | 0.00 | 1.04 | 1.03 | 17 | 1021.1 |
| 20260507035006 | 38 | 225 | 1.7 | 5.2 | 0.00 | 1.04 | 1.03 | 17 | 1021.0 |
| 20260507034005 | 37 | 270 | 0.9 | 4.3 | 0.00 | 1.04 | 1.03 | 17 | 1020.8 |
| 20260507032006 | 35 | 225 | 0.9 | 2.6 | 0.00 | 1.04 | 1.03 | 17 | 1020.8 |
| 20260507031006 | 35 | 225 | 0.9 | 1.7 | 0.00 | 1.04 | 1.03 | 17 | 1020.6 |
| 20260507022005 | 33 | 270 | 0.9 | 2.6 | 0.00 | 1.04 | 1.03 | 17 | 1021.0 |
| 20260507021005 | 33 | 270 | 0.9 | 2.6 | 0.00 | 1.04 | 1.03 | 17 | 1020.7 |
| 20260507015006 | 33 | 270 | 0.9 | 2.6 | 0.00 | 1.04 | 1.03 | 17 | 1020.4 |
| 20260507013007 | 33 | 225 | 0.9 | 2.6 | 0.00 | 1.04 | 1.03 | 17 | 1020.5 |
| 20260507011006 | 33 | 225 | 0.9 | 2.6 | 0.00 | 1.04 | 1.03 | 17 | 1020.2 |
| 20260507005006 | 32 | 225 | 0.9 | 2.6 | 0.00 | 1.04 | 1.03 | 17 | 1020.2 |
| 20260507004006 | 31 | 270 | 0.9 | 2.6 | 0.00 | 1.04 | 1.03 | 17 | 1020.2 |
| 20260507002006 | 32 | 225 | 0.9 | 1.7 | 0.00 | 1.04 | 1.03 | 17 | 1020.0 |
| 20260507001006 | 33 | 270 | 0.9 | 1.7 | 0.00 | 1.04 | 1.03 | 17 | 1020.0 |
| 20260506235006 | 34 | 225 | 0.9 | 2.6 | 0.00 | 1.04 | 1.03 | 17 | 1020.1 |
| 20260506234006 | 34 | 180 | 0.9 | 5.2 | 0.00 | 1.04 | 1.03 | 17 | 1019.9 |
| 20260506233006 | 34 | 225 | 0.9 | 2.6 | 0.00 | 1.04 | 1.03 | 17 | 1020.0 |
| 20260506231005 | 36 | 270 | 0.9 | 6.1 | 0.00 | 1.04 | 1.03 | 17 | 1019.7 |
| 20260506225005 | 37 | 180 | 0.9 | 2.6 | 0.00 | 1.04 | 1.03 | 17 | 1019.5 |
| 20260506224006 | 35 | 180 | 1.7 | 4.3 | 0.00 | 1.04 | 1.03 | 17 | 1019.4 |
| 20260506223005 | 34 | 180 | 0.9 | 2.6 | 0.00 | 1.04 | 1.03 | 17 | 1019.4 |
| 20260506222006 | 36 | 180 | 0.9 | 2.6 | 0.00 | 1.04 | 1.03 | 17 | 1019.3 |
| 20260506215006 | 37 | 270 | 0.9 | 2.6 | 0.00 | 1.04 | 1.03 | 17 | 1019.3 |
| 20260506214006 | 38 | 0 | 1.7 | 5.2 | 0.00 | 1.04 | 1.03 | 17 | 1019.1 |
| 20260506213007 | 39 | 225 | 0.9 | 2.6 | 0.00 | 1.04 | 1.03 | 17 | 1019.1 |
| 20260506211005 | 40 | 270 | 1.7 | 5.2 | 0.00 | 1.04 | 1.03 | 17 | 1019.0 |
| 20260506205006 | 40 | 0 | 1.7 | 5.2 | 0.00 | 1.03 | 1.03 | 17 | 1019.0 |
| 20260506204006 | 41 | 180 | 0.9 | 6.1 | 0.00 | 1.03 | 1.03 | 17 | 1019.0 |
| 20260506203005 | 41 | 270 | 0.9 | 4.3 | 0.00 | 1.03 | 1.03 | 17 | 1019.0 |
| 20260506202006 | 41 | 0 | 1.7 | 6.1 | 0.00 | 1.03 | 1.03 | 17 | 1019.0 |
| 20260506195006 | 41 | 180 | 0.9 | 2.6 | 0.00 | 1.03 | 1.03 | 17 | 1018.7 |
| 20260506194006 | 41 | 135 | 0.0 | 4.3 | 0.00 | 1.03 | 1.03 | 17 | 1018.7 |
| 20260506192006 | 42 | 270 | 1.7 | 5.2 | 0.00 | 1.03 | 1.03 | 17 | 1018.5 |
| 20260506191006 | 42 | 225 | 1.7 | 5.2 | 0.00 | 1.03 | 1.03 | 17 | 1018.5 |
| 20260506185006 | 42 | 270 | 1.7 | 7.0 | 0.00 | 1.03 | 1.03 | 17 | 1018.3 |
| 20260506184006 | 42 | 135 | 0.9 | 5.2 | 0.00 | 1.03 | 1.03 | 17 | 1018.3 |
| 20260506183006 | 43 | 225 | 1.7 | 8.7 | 0.00 | 1.03 | 1.03 | 17 | 1018.2 |
| 20260506182005 | 43 | 45 | 1.7 | 11.3 | 0.00 | 1.03 | 1.03 | 17 | 1018.4 |
| 20260506181006 | 45 | 270 | 1.7 | 7.8 | 0.00 | 1.03 | 1.03 | 17 | 1018.3 |
| 20260506174006 | 45 | 45 | 2.6 | 8.7 | 0.00 | 1.03 | 1.03 | 17 | 1018.1 |
| 20260506173005 | 44 | 270 | 2.6 | 11.3 | 0.00 | 1.03 | 1.03 | 17 | 1018.0 |
| 20260506172005 | 45 | 0 | 1.7 | 7.0 | 0.00 | 1.03 | 1.03 | 17 | 1017.7 |
| 20260506171006 | 44 | 90 | 2.6 | 10.4 | 0.00 | 1.03 | 1.03 | 17 | 1017.6 |
| 20260506164006 | 47 | 0 | 1.7 | 10.4 | 0.00 | 1.03 | 1.03 | 17 | 1017.7 |
| 20260506163006 | 47 | 270 | 2.6 | 13.0 | 0.00 | 1.03 | 1.03 | 17 | 1017.5 |
| 20260506162006 | 47 | 270 | 4.3 | 11.3 | 0.00 | 1.03 | 1.03 | 17 | 1017.6 |
| 20260506161005 | 47 | 270 | 4.3 | 11.3 | 0.00 | 1.03 | 1.03 | 17 | 1017.5 |
| 20260506155006 | 47 | 270 | 2.6 | 11.3 | 0.00 | 1.03 | 1.03 | 17 | 1017.5 |
| 20260506154006 | 47 | 0 | 3.5 | 8.7 | 0.00 | 1.03 | 1.03 | 17 | 1017.4 |
| 20260506153007 | 48 | 270 | 3.5 | 11.3 | 0.00 | 1.03 | 1.03 | 17 | 1017.5 |
| 20260506152006 | 48 | 0 | 4.3 | 11.3 | 0.00 | 1.03 | 1.03 | 17 | 1017.6 |
| 20260506145007 | 50 | 90 | 2.6 | 8.7 | 0.00 | 1.03 | 1.03 | 17 | 1017.1 |
| 20260506144006 | 49 | 270 | 4.3 | 8.7 | 0.00 | 1.03 | 1.03 | 17 | 1017.3 |
| 20260506143006 | 51 | 225 | 2.6 | 10.4 | 0.00 | 1.03 | 1.03 | 17 | 1017.5 |
| 20260506142006 | 52 | 45 | 1.7 | 5.2 | 0.00 | 1.03 | 1.03 | 17 | 1017.4 |
| 20260506141006 | 52 | 0 | 0.9 | 7.0 | 0.00 | 1.03 | 1.03 | 17 | 1017.2 |
| 20260506135006 | 51 | 135 | 1.7 | 6.1 | 0.00 | 1.03 | 1.03 | 17 | 1017.2 |
| 20260506134007 | 51 | 338 | 1.7 | 7.0 | 0.00 | 1.03 | 1.03 | 17 | 1017.1 |
| 20260506131005 | 49 | 180 | 1.7 | 7.0 | 0.00 | 1.03 | 1.03 | 17 | 1016.9 |
| 20260506124005 | 47 | 338 | 1.7 | 6.1 | 0.00 | 1.03 | 1.03 | 17 | 1016.8 |
| 20260506123006 | 47 | 0 | 2.6 | 7.0 | 0.00 | 1.03 | 1.03 | 17 | 1016.7 |
| 20260506115006 | 46 | 315 | 1.7 | 11.3 | 0.73 | 1.03 | 1.03 | 17 | 1016.2 |
| 20260506114006 | 48 | 270 | 3.5 | 11.3 | 0.73 | 1.03 | 1.03 | 17 | 1016.2 |
| 20260506113005 | 35 | 270 | 2.6 | 8.7 | 0.73 | 1.03 | 1.03 | 17 | 994.5 |
| 20260506112006 | 49 | 270 | 2.6 | 6.1 | 0.74 | 1.03 | 1.03 | 17 | 1016.0 |
| 20260506105006 | 49 | 270 | 1.7 | 6.1 | 0.74 | 1.03 | 1.03 | 17 | 1015.6 |
| 20260506104005 | 49 | 45 | 2.6 | 8.7 | 0.74 | 1.03 | 1.03 | 17 | 1015.3 |
| 20260506103005 | 36 | 225 | 2.6 | 11.3 | 0.74 | 1.03 | 1.03 | 17 | 995.8 |
| 20260506102005 | 46 | 0 | 2.6 | 11.3 | 0.77 | 1.03 | 1.03 | 17 | 1015.2 |
| 20260506101005 | 45 | 90 | 1.7 | 7.0 | 0.77 | 1.03 | 1.03 | 17 | 1015.0 |